STARLINK-32529, 62139

Orbit data source: Space-Track

STARLINK-32529, 62139 is a payload satellite owned by SpaceX/Seattle (US) in LEO that was launched on Sat, 30 Nov 2024 UTC via an FALCON 9 launch vehicle from the Air Force Eastern Test Range (AFETR). Payload-class satellites include a variety of spacecraft equipped with specific instruments for various scientific and technological missions. These include communications satellites like Starlink; space stations such as the ISS; scientific satellites like the Hubble; Earth observation satellites from companies like Planet Labs, Umbra, and HawkEye 360; GPS; miniature CubeSats for education and research; and military/defense satellites.

Loading next visibility...
Identifier
62139, 2024-224A
Orbit
LEO
Country
Flag of USUS
Related business
Manufacturer
SpaceX/Seattle
Mission
Operational Commercial Communications
Bus & Motor
STARLINK V2M, Unknown motor
Mass
730 kg wet, ~700 kg dry
Launch date (UTC)
2024-11-30 (1 year ago)
Launch vehicle
FALCON 9
Launch site
Air Force Eastern Test Range (AFETR)
Object type
Payload
Rocket body
Debris
Shape & HBR
Box + 2 Pan, 17.7 m
Radar Cross Section
33.884 m², Large (>1 m²)

Expand to show TLE details & history
Last TLE update: 18 hours ago

TLE from 18 hours ago
0 STARLINK-32529
1 62139U 24224A   25348.85812132  .00019993  00000-0  73416-3 0  9992
2 62139  43.0011 277.4293 0001084 281.8360  78.2370 15.27576767 59449
Epoch: 2025-12-14T20:35Z
TLE epoch observation values (Epoch: 2025-12-14T20:35:41.682Z)
Latitude
-0°
Longitude
-115.25939°
Altitude
482.683 km
Speed
7.626 km/s
True Right ascension
18h 29m 43s
True Declination
0° 00' 00"
Sunlit
Object was in daylight at epoch
Visualization orbit readout
Latitude
Unknown
Longitude
Unknown
Altitude
Unknown
Speed
Unknown
Apparent Right ascension
Unknown
Apparent Declination
Unknown
Sunlit
N/A
Visualization observer readout
Local Sidereal Time
13:25:38
Azimuth
Unknown
Elevation
Unknown
Doppler factor
Unknown
Orbital elements
Apogee altitude
485.748 km
Perigee altitude
484.26 km
Semi-major axis
6,863.141 km
Eccentricity
0.00011
Inclination
43.0011°
RAAN
277.4293°
Arg. of periapsis
281.836°
True anomaly
78.24916°
Mean anomaly
78.237°
Eccentric anomaly
78.24308°
Mean motion
3.81732 °/min
Orbital period
94.31 mins
BSTAR
0.00073416
Loading maneuver chart data...
Computing Atmospheric mass density...
Loading historical data...
Loading historical data...
Loading historical data...
Loading historical data...
Loading historical data...
Loading historical data...
Loading historical data...

Documentation

Showing up to 5 results
|